Home   Weather   Kuala Lumpur   Past weeks

Flag for Malaysia Past Weather in Kuala Lumpur, Malaysia — Yesterday and Last 2 Weeks

77 °F

Partly cloudy.

Feels Like: 78 °F
Forecast: 77 / 85 °F
Wind: 2 mph from Northwest

Location: Sultan Abdul Aziz Shah-Subang

Current Time: Oct 29, 2016 at 5:54:26 AM

Latest Report: Oct 29, 2016 at 5:00 AM

Visibility: 2 mi

Pressure: 29.77 "Hg

Humidity: 94%

Dew Point: 75 °F

Location of Kuala LumpurLocation

Past Weather in Kuala Lumpur — Graph


Kuala Lumpur Temperature Yesterday

Maximum temperature yesterday: 88 °F (at 1:00 PM)
Minimum temperature yesterday: 77 °F (at 3:00 AM)
Average temperature yesterday: 80 °F

High & Low Weather Summary for the Past Weeks

High95 °F (Oct 20, 2:00 PM)100% (Oct 17, 6:00 AM)29.92 "Hg (Oct 17, 6:00 AM)
Low75 °F (Oct 16, 10:00 PM)44% (Oct 20, 4:00 PM)29.68 "Hg (Oct 18, 4:00 PM)
Average83 °F76%29.79 "Hg
* Reported Oct 14 4:00 AM — Oct 29 4:00 AM, Kuala Lumpur, Weather by CustomWeather, © 2016

Note: Actual official high and low records may vary slightly from our data, if they occured in-between our weather recording intervals... More about our weather records


Kuala Lumpur Weather History for the Previous 24 Hours

Scroll right to see more
Time TempWeatherWind HumidityBarometerVisibility
4:00 AM
Sat, Oct 29
77 °FPartly cloudy.No wind94%29.77 "Hg2 mi
3:00 AM77 °FPartly cloudy.No wind94%29.80 "Hg3 mi
2:00 AM77 °FPartly cloudy.No wind94%29.80 "Hg3 mi
1:00 AM79 °FPartly cloudy.1 mph89%29.83 "Hg4 mi
12:00 AM79 °FPartly cloudy.2 mph89%29.86 "Hg4 mi
11:00 PM
Fri, Oct 28
79 °FPartly cloudy.1 mph89%29.86 "Hg5 mi
10:00 PM79 °FPartly cloudy.No wind89%29.86 "Hg5 mi
9:00 PM79 °FPartly cloudy.No wind89%29.83 "Hg6 mi
8:00 PM81 °FPartly cloudy.1 mph84%29.80 "HgN/A
7:00 PM81 °FBroken clouds.1 mph84%29.77 "HgN/A
6:00 PM81 °FBroken clouds.2 mph89%29.77 "HgN/A
5:00 PM81 °FPartly sunny.5 mph84%29.77 "HgN/A
4:00 PM79 °FLight rain. Partly sunny.1 mph94%29.77 "Hg5 mi
3:00 PM79 °FThunderstorms. Partly sunny.5 mph89%29.80 "Hg4 mi
2:00 PM86 °FThunderstorms. Broken clouds.9 mph70%29.80 "Hg4 mi
1:00 PM88 °FBroken clouds.12 mph70%29.86 "HgN/A
12:00 PM86 °FBroken clouds.10 mph70%29.89 "HgN/A
11:00 AM84 °FSprinkles. Broken clouds.9 mph74%29.89 "Hg5 mi
10:00 AM84 °FBroken clouds.5 mph79%29.92 "HgN/A
9:00 AM81 °FBroken clouds.No wind89%29.89 "Hg6 mi
8:00 AM79 °FBroken clouds.No wind89%29.86 "Hg5 mi
7:00 AM77 °FPassing clouds.No wind94%29.83 "Hg4 mi
6:00 AM77 °FPartly cloudy.No wind94%29.83 "Hg3 mi
5:00 AM77 °FPartly cloudy.No wind94%29.83 "Hg6 mi
Weather by CustomWeather, © 2016

See weather overviewHow to use our weather pages